Tracking 17842 objects as of 31-August-2016
HD Live streaming from Space Station
objects crossing your sky now

FENGYUN 2B AKM

Track FENGYUN 2B AKM now!


NORAD ID: 26460
Int'l Code: 2000-032C
Perigee: 35,781.2 km
Apogee: 35,959.0 km
Inclination: 12.1 °
Period: 1,440.0 minutes
Semi major axis: 42241 km
RCS: 7.9432 m2 (large)
Launch date: June 25, 2000
Source: People's Republic of China (PRC)
Launch site: Xichang Space Center, China (XSC)

Note: This is a ROCKET BODY
Your satellite tracking list
Your tracking list is empty





NASA's NSSDC Master Catalog

Two Line Element Set (TLE):
1 26460U 00032C   16243.99508046  .00000096  00000-0  00000+0 0  9994
2 26460  12.0847  36.0081 0021048 300.6805  47.4261  1.00142322 86336
Source of the keplerian elements: AFSPC

N2YO: 503